This demonstration page uses our WeatherBlox Daily Observations layout. Learn more.

41.55636, -103.73856

Hourly Observations for June 2, 2020

Temp ( °F °C ) Dew Point ( °F °C ) Humidity (%) Winds ( mph kmh ) Pressure ( in mb ) Visibility ( mi km ) Precip ( " mm )
12:58 am 00:58 Clear 87 30.6 46 7.7 24 24 SSW 13 20 29.8 1009 10 16.0934 0 0
1:58 am 01:58 Clear 79 25.9 51 10.4 38 38 S 9 15 29.82 1010 10 16.0934 0 0
2:58 am 02:58 Clear 73 22.5 46 7.8 39 39 SSW 7 11 29.83 1010 10 16.0934 0 0
3:58 am 03:58 Clear 69 20.7 47 8.5 46 46 SSW 8 13 29.84 1011 10 16.0934 0 0
4:58 am 04:58 Partly Cloudy 71 21.7 44 6.8 38 38 WSW 7 11 29.85 1011 10 16.0934 0 0
5:58 am 05:58 Mostly Cloudy 70 20.9 45 7.3 42 42 SW 7 11 29.85 1011 10 16.0934 0 0
6:58 am 06:58 Mostly Cloudy 70 21 44 6.4 39 39 SSW 8 13 29.84 1011 10 16.0934 0 0
7:58 am 07:58 Mostly Cloudy 71 21.8 41 5 34 34 SSW 9 15 29.82 1010 10 16.0934 0 0
8:58 am 08:58 Clear 64 18 46 7.8 52 52 SW 10 17 29.85 1011 10 16.0934 0 0
9:58 am 09:58 Mostly Cloudy 65 18.4 45 7.2 48 48 WSW 5 7 29.86 1011 10 16.0934 0 0
10:58 am 10:58 Mostly Clear 64 17.8 43 6.3 47 47 WNW 5 7 29.88 1012 10 16.0934 0 0
11:58 am 11:58 Mostly Cloudy 64 17.8 44 6.6 48 48 W 7 11 29.9 1012 10 16.0934 0 0
12:58 pm 12:58 Sunny 66 18.9 46 7.8 49 49 WNW 6 9 29.92 1013 10 16.0934 0 0
1:58 pm 13:58 Mostly Sunny 72 22.1 41 4.9 33 33 WNW 13 20 29.94 1014 10 16.0934 0 0
2:58 pm 14:58 Mostly Sunny 71 21.6 51 10.3 49 49 NW 14 22 29.98 1015 10 16.0934 0 0
3:58 pm 15:58 Mostly Sunny 76 24.7 53 11.8 45 45 NW 20 31 29.96 1015 10 16.0934 0 0
4:58 pm 16:58 Mostly Sunny 78 25.3 54 12.3 44 44 NNW 17 28 29.98 1015 10 16.0934 0 0
5:58 pm 17:58 Mostly Sunny 81 27.3 55 12.5 40 40 NNE 13 20 29.98 1015 10 16.0934 0 0
6:58 pm 18:58 Sunny 82 27.5 54 12.4 39 39 N 14 22 29.98 1015 10 16.0934 0 0
7:58 pm 19:58 Sunny 83 28.5 53 11.4 35 35 NNE 13 20 29.97 1015 10 16.0934 0 0
8:58 pm 20:58 Sunny 83 28.2 51 10.7 34 34 ENE 13 20 29.98 1015 10 16.0934 0 0
9:58 pm 21:58 Sunny 81 27.4 55 13 41 41 NE 15 24 29.97 1015 10 16.0934 0 0
10:58 pm 22:58 Sunny 79 25.9 52 11.2 40 40 ENE 15 24 29.97 1015 10 16.0934 0 0
11:58 pm 23:58 Sunny 76 24.3 53 11.8 46 46 E 12 19 29.98 1015 10 16.0934 0 0

Powered by AerisWeather